Location: Brodeslavy
(49.9527°N, 13.5567°E)
Time: 20:32:50
(UTC+00:00)

Lacrosse 4 Rocket - Pass Details

Date: 17 June 2025
Orbit: 511 x 577 km, 68.0° (Epoch: 16 July)

Event Time Altitude Azimuth Distance (km) Brightness Sun altitude
Rises 20:35:38 0° 317° (NW) 2,775 7.1 -9.3°
Reaches altitude 10° 20:38:06 10° 305° (NW) 1,881 5.3 -9.6°
Maximum altitude 20:41:37 26° 248° (WSW) 1,146 3.1 -9.9°
Drops below altitude 10° 20:45:09 10° 191° (SSW) 1,884 3.6 -10.2°
Enters shadow 20:45:47 - 187° (S) 2,098 3.8 -10.3°
